When you browse on this site, cookies collect data to enhance your experience and personalize the content and advertising you see.
Visit our Privacy Policy to learn more. By continuing to use the site, you agree to this use of cookies and data.
  • In Switzerland
  • List of Countries
  • For 7 days
  • Water Temperature
  • Weather Map
  • Weather Widgets
  • user-avatar
    Login

    Hourly Weather Canberra

    Today, 3 June, Wednesday

    Time Temperature Precipitation Wind Pressure Humidity
    00:00 +3°C° 0 mm 3 mps 709 mmHg 92%
    01:00 +3°C° 0 mm 3 mps 709 mmHg 91%
    02:00 +4°C° 0 mm 3 mps 709 mmHg 90%
    03:00 +4°C° 0 mm 3 mps 710 mmHg 90%
    04:00 +5°C° 0 mm 4 mps 710 mmHg 90%
    05:00 +4°C° 0 mm 3 mps 710 mmHg 91%
    06:00 +4°C° 0 mm 3 mps 711 mmHg 93%
    07:00 +3°C° 0 mm 3 mps 711 mmHg 95%
    08:00 +6°C° 0 mm 2 mps 712 mmHg 85%
    09:00 +8°C° 0 mm 2 mps 713 mmHg 75%
    10:00 +10°C° 0 mm 2 mps 714 mmHg 65%
    11:00 +10°C° 0 mm 3 mps 714 mmHg 59%
    12:00 +11°C° 0 mm 3 mps 714 mmHg 52%
    13:00 +12°C° 0 mm 3 mps 714 mmHg 46%
    14:00 +11°C° 0 mm 3 mps 714 mmHg 49%
    15:00 +11°C° 0 mm 3 mps 715 mmHg 51%
    16:00 +10°C° 0 mm 3 mps 715 mmHg 54%
    17:00 +8°C° 0 mm 3 mps 716 mmHg 61%
    18:00 +5°C° 0 mm 3 mps 716 mmHg 68%
    19:00 +4°C° 0 mm 2 mps 717 mmHg 75%
    20:00 +4°C° 0 mm 2 mps 717 mmHg 77%
    21:00 +3°C° 0 mm 2 mps 718 mmHg 80%
    22:00 +3°C° 0 mm 2 mps 718 mmHg 82%
    23:00 +2°C° 0 mm 2 mps 718 mmHg 85%

    Tomorrow, 4 June, Thursday

    Time Temperature Precipitation Wind Pressure Humidity
    00:00 +2°C° 0 mm 2 mps 718 mmHg 87%
    01:00 +2°C° 0 mm 1 mps 718 mmHg 90%
    02:00 +2°C° 0 mm 1 mps 718 mmHg 90%
    03:00 +2°C° 0 mm 1 mps 718 mmHg 91%
    04:00 +1°C° 0 mm 1 mps 718 mmHg 91%
    05:00 +1°C° 0 mm 1 mps 718 mmHg 90%
    06:00 +1°C° 0 mm 1 mps 719 mmHg 90%
    07:00 +1°C° 0 mm 1 mps 719 mmHg 89%
    08:00 +4°C° 0 mm 1 mps 719 mmHg 76%
    09:00 +7°C° 0 mm 1 mps 720 mmHg 63%
    10:00 +10°C° 0 mm 1 mps 720 mmHg 50%
    11:00 +11°C° 0 mm 1 mps 720 mmHg 46%
    12:00 +12°C° 0 mm 1 mps 719 mmHg 43%
    13:00 +13°C° 0 mm 1 mps 719 mmHg 39%
    14:00 +13°C° 0 mm 1 mps 718 mmHg 45%
    15:00 +12°C° 0 mm 1 mps 718 mmHg 51%
    16:00 +11°C° 0 mm 1 mps 718 mmHg 57%
    17:00 +9°C° 0 mm 1 mps 718 mmHg 66%
    18:00 +6°C° 0 mm 0 mps 718 mmHg 75%
    19:00 +4°C° 0 mm 0 mps 718 mmHg 84%
    20:00 +3°C° 0 mm 0 mps 718 mmHg 85%
    21:00 +3°C° 0 mm 0 mps 719 mmHg 86%
    22:00 +3°C° 0 mm 0 mps 719 mmHg 87%
    23:00 +2°C° 0 mm 0 mps 718 mmHg 88%

    Day after tomorrow, 5 June, Friday

    Time Temperature Precipitation Wind Pressure Humidity
    00:00 +2°C° 0 mm 0 mps 718 mmHg 89%
    01:00 +2°C° 0 mm 0 mps 718 mmHg 90%
    02:00 +2°C° 0 mm 0 mps 718 mmHg 90%
    03:00 +1°C° 0 mm 0 mps 717 mmHg 90%
    04:00 +1°C° 0 mm 0 mps 717 mmHg 91%
    05:00 +1°C° 0 mm 0 mps 717 mmHg 91%
    06:00 +1°C° 0 mm 0 mps 717 mmHg 91%
    07:00 0°C° 0 mm 0 mps 717 mmHg 92%
    08:00 +4°C° 0 mm 1 mps 717 mmHg 83%
    09:00 +6°C° 0 mm 1 mps 717 mmHg 75%
    10:00 +9°C° 0 mm 1 mps 717 mmHg 67%
    11:00 +9°C° 0 mm 2 mps 717 mmHg 60%
    12:00 +12°C° 0 mm 2 mps 716 mmHg 54%
    13:00 +14°C° 0 mm 2 mps 716 mmHg 48%
    14:00 +13°C° 0 mm 2 mps 716 mmHg 52%
    15:00 +12°C° 0 mm 2 mps 715 mmHg 56%
    16:00 +10°C° 0 mm 2 mps 715 mmHg 60%
    17:00 +8°C° 0 mm 2 mps 715 mmHg 69%
    18:00 +7°C° 0 mm 1 mps 715 mmHg 79%
    19:00 +5°C° 0 mm 1 mps 716 mmHg 88%
    20:00 +3°C° 0 mm 0 mps 716 mmHg 88%
    21:00 +3°C° 0 mm 0 mps 716 mmHg 88%
    22:00 +2°C° 0 mm 0 mps 716 mmHg 89%
    23:00 +2°C° 0 mm 0 mps 715 mmHg 88%

    6 June, Saturday

    Time Temperature Precipitation Wind Pressure Humidity
    00:00 +2°C° 0 mm 0 mps 715 mmHg 88%
    01:00 +1°C° 0 mm 0 mps 715 mmHg 88%
    02:00 +1°C° 0 mm 0 mps 715 mmHg 89%
    03:00 +1°C° 0 mm 0 mps 715 mmHg 89%
    04:00 +1°C° 0 mm 0 mps 714 mmHg 90%
    05:00 0°C° 0 mm 0 mps 714 mmHg 90%
    06:00 0°C° 0 mm 0 mps 714 mmHg 90%
    07:00 0°C° 0 mm 0 mps 715 mmHg 91%
    08:00 +3°C° 0 mm 0 mps 715 mmHg 82%
    09:00 +5°C° 0 mm 0 mps 715 mmHg 73%
    10:00 +8°C° 0 mm 0 mps 715 mmHg 64%
    11:00 +10°C° 0 mm 1 mps 714 mmHg 59%
    12:00 +10°C° 0 mm 2 mps 714 mmHg 54%
    13:00 +12°C° 0 mm 2 mps 713 mmHg 49%
    14:00 +12°C° 0 mm 2 mps 713 mmHg 52%
    15:00 +10°C° 0 mm 2 mps 713 mmHg 56%
    16:00 +10°C° 0 mm 2 mps 712 mmHg 60%
    17:00 +8°C° 0 mm 2 mps 712 mmHg 69%
    18:00 +7°C° 0 mm 1 mps 712 mmHg 78%
    19:00 +5°C° 0 mm 1 mps 713 mmHg 86%
    20:00 +4°C° 0 mm 1 mps 712 mmHg 87%
    21:00 +3°C° 0 mm 0 mps 712 mmHg 87%
    22:00 +2°C° 0 mm 0 mps 712 mmHg 88%
    23:00 +2°C° 0 mm 0 mps 712 mmHg 87%

    7 June, Sunday

    Time Temperature Precipitation Wind Pressure Humidity
    00:00 +2°C° 0 mm 0 mps 712 mmHg 85%
    01:00 +2°C° 0 mm 0 mps 712 mmHg 84%
    02:00 +2°C° 0 mm 0 mps 712 mmHg 85%
    03:00 +2°C° 0 mm 0 mps 712 mmHg 86%
    04:00 +1°C° 0 mm 0 mps 711 mmHg 87%
    05:00 +1°C° 0 mm 0 mps 712 mmHg 88%
    06:00 0°C° 0 mm 0 mps 712 mmHg 89%
    07:00 0°C° 0 mm 0 mps 712 mmHg 90%
    08:00 +3°C° 0 mm 1 mps 713 mmHg 82%
    09:00 +6°C° 0 mm 1 mps 713 mmHg 74%
    10:00 +7°C° 0 mm 2 mps 713 mmHg 66%
    11:00 +8°C° 0 mm 2 mps 713 mmHg 60%
    12:00 +9°C° 0 mm 2 mps 713 mmHg 54%
    13:00 +10°C° 0 mm 3 mps 713 mmHg 48%
    14:00 +9°C° 0 mm 3 mps 713 mmHg 49%
    15:00 +9°C° 0 mm 3 mps 713 mmHg 50%
    16:00 +9°C° 0 mm 3 mps 713 mmHg 52%
    17:00 +7°C° 0 mm 3 mps 713 mmHg 60%
    18:00 +5°C° 0 mm 2 mps 714 mmHg 68%
    19:00 +3°C° 0 mm 2 mps 715 mmHg 76%
    20:00 +2°C° 0 mm 2 mps 715 mmHg 79%
    21:00 +2°C° 0 mm 2 mps 715 mmHg 82%
    22:00 +1°C° 0 mm 2 mps 715 mmHg 85%
    23:00 +1°C° 0 mm 2 mps 716 mmHg 86%

    8 June, Monday

    Time Temperature Precipitation Wind Pressure Humidity
    00:00 +1°C° 0 mm 2 mps 716 mmHg 88%
    01:00 +1°C° 0 mm 2 mps 716 mmHg 89%
    02:00 -1°C° 0 mm 2 mps 716 mmHg 90%
    03:00 -1°C° 0 mm 2 mps 716 mmHg 90%
    04:00 -1°C° 0 mm 2 mps 716 mmHg 91%
    05:00 +1°C° 0 mm 1 mps 716 mmHg 90%
    06:00 0°C° 0 mm 1 mps 717 mmHg 89%
    07:00 0°C° 0 mm 1 mps 717 mmHg 88%
    08:00 +3°C° 0 mm 1 mps 718 mmHg 76%
    09:00 +6°C° 0 mm 1 mps 718 mmHg 63%
    10:00 +9°C° 0 mm 1 mps 719 mmHg 51%
    11:00 +10°C° 0 mm 1 mps 718 mmHg 48%
    12:00 +12°C° 0 mm 1 mps 718 mmHg 45%
    13:00 +13°C° 0 mm 1 mps 718 mmHg 42%
    14:00 +12°C° 0 mm 1 mps 718 mmHg 46%
    15:00 +11°C° 0 mm 1 mps 718 mmHg 50%
    16:00 +11°C° 0 mm 1 mps 718 mmHg 54%
    17:00 +8°C° 0 mm 1 mps 718 mmHg 62%
    18:00 +6°C° 0 mm 1 mps 719 mmHg 70%
    19:00 +3°C° 0 mm 0 mps 719 mmHg 78%
    20:00 +2°C° 0 mm 0 mps 719 mmHg 81%
    21:00 +3°C° 0 mm 1 mps 719 mmHg 83%
    22:00 +2°C° 0 mm 1 mps 720 mmHg 86%
    23:00 +2°C° 0 mm 1 mps 719 mmHg 87%
    Show more